Location: *
(28.3744°N, 81.5492°W)
Time: 03:53:59
(UTC+00:00)

Feng Yun 1-1 Rocket - Pass Details

Date: 15 June 2025
Orbit: 829 x 933 km, 99.0° (Epoch: 11 July)

Event Time Altitude Azimuth Distance (km) Brightness Sun altitude
Exits shadow 01:34:02 13° 159° (SSE) 2,372 6.0 -13.8°
Maximum altitude 01:39:15 75° 75° (ENE) 960 4.4 -14.7°
Drops below altitude 10° 01:45:10 10° 351° (N) 2,642 7.5 -15.7°
Sets 01:47:36 0° 350° (N) 3,588 8.3 -16.1°
